DLH7CG EDDH-EDDF

Flight info

Callsign DLH7CG
Flight time N/A
Altitude 30000
Route AMLUH2C/05 AMLUH M852 DENIX DCT RIMET/N0448F310 T157 KOKEB/N0401F230 T157 KERAX KERAX5A
Aircraft A321/M-SDE3FGHIRWY/LB1

Departure

Time N/A
Airport Hamburg Helmut Schmidt Airport (EDDH)

Arrival

Time 2026-05-06 14:37
Airport Frankfurt Main Airport (EDDF)
Time Latitude Longitude Altitude Speed Heading
2026-05-06 14:17 51.05737 9.99733 23580 ft 408 kts 205°
2026-05-06 14:17 51.03184 9.97920 23350 ft 407 kts 206°
2026-05-06 14:17 51.00605 9.96051 23075 ft 407 kts 206°
2026-05-06 14:18 50.98041 9.94183 22787 ft 405 kts 206°
2026-05-06 14:18 50.95476 9.92319 22520 ft 404 kts 206°
2026-05-06 14:18 50.92920 9.90476 22248 ft 403 kts 206°
2026-05-06 14:18 50.90364 9.88647 21975 ft 402 kts 206°
2026-05-06 14:19 50.87817 9.86836 21707 ft 401 kts 206°
2026-05-06 14:19 50.85276 9.85033 21440 ft 400 kts 206°
2026-05-06 14:19 50.82737 9.83237 21176 ft 399 kts 206°
2026-05-06 14:19 50.80204 9.81449 20915 ft 398 kts 205°
2026-05-06 14:20 50.77680 9.79671 20573 ft 397 kts 205°
2026-05-06 14:20 50.75196 9.77921 20197 ft 395 kts 205°
2026-05-06 14:20 50.72693 9.76156 19816 ft 393 kts 205°
2026-05-06 14:20 50.70202 9.74406 19449 ft 391 kts 205°
2026-05-06 14:21 50.67723 9.72670 19078 ft 389 kts 205°
2026-05-06 14:21 50.65256 9.70944 18713 ft 387 kts 205°
2026-05-06 14:21 50.62798 9.69222 18361 ft 385 kts 205°
2026-05-06 14:21 50.60359 9.67498 18002 ft 384 kts 205°
2026-05-06 14:22 50.57931 9.65756 17609 ft 382 kts 205°
2026-05-06 14:22 50.55524 9.64011 17199 ft 380 kts 205°
2026-05-06 14:22 50.53136 9.62248 16800 ft 379 kts 208°
2026-05-06 14:22 50.50944 9.60081 16411 ft 376 kts 217°
2026-05-06 14:23 50.49009 9.57335 16017 ft 375 kts 227°
2026-05-06 14:23 50.47406 9.54134 15639 ft 373 kts 236°
2026-05-06 14:23 50.45899 9.50827 15269 ft 371 kts 226°
2026-05-06 14:23 50.43851 9.48435 14888 ft 368 kts 206°
2026-05-06 14:24 50.41401 9.47331 14529 ft 369 kts 187°
2026-05-06 14:24 50.38860 9.47072 14215 ft 360 kts 184°
2026-05-06 14:24 50.36393 9.46898 13932 ft 349 kts 184°
2026-05-06 14:24 50.34003 9.46737 13646 ft 339 kts 184°
2026-05-06 14:25 50.31679 9.46584 13339 ft 330 kts 184°
2026-05-06 14:25 50.29415 9.46438 13019 ft 321 kts 184°
2026-05-06 14:25 50.27231 9.46076 12698 ft 311 kts 196°
2026-05-06 14:25 50.25299 9.44732 12389 ft 299 kts 216°
2026-05-06 14:26 50.23840 9.42562 11974 ft 286 kts 234°
2026-05-06 14:26 50.22950 9.39880 11441 ft 282 kts 252°
2026-05-06 14:26 50.22406 9.36952 10862 ft 280 kts 253°
2026-05-06 14:26 50.21868 9.34036 10335 ft 279 kts 253°
2026-05-06 14:27 50.21330 9.31146 10047 ft 274 kts 253°
2026-05-06 14:27 50.20807 9.28345 9938 ft 263 kts 252°
2026-05-06 14:27 50.20304 9.25651 9705 ft 257 kts 252°
2026-05-06 14:27 50.19801 9.22971 9132 ft 258 kts 252°
2026-05-06 14:28 50.19295 9.20288 8542 ft 258 kts 252°
2026-05-06 14:28 50.18788 9.17604 7977 ft 256 kts 252°
2026-05-06 14:28 50.18290 9.14966 7414 ft 250 kts 252°
2026-05-06 14:28 50.17811 9.12430 6881 ft 245 kts 252°
2026-05-06 14:29 50.17335 9.09916 6352 ft 239 kts 252°
2026-05-06 14:29 50.17023 9.08268 6246 ft 232 kts 252°
2026-05-06 14:29 50.16686 9.06229 6335 ft 222 kts 252°
2026-05-06 14:30 50.16203 9.03612 6217 ft 279 kts 252°
2026-05-06 14:30 50.15626 9.00667 6059 ft 275 kts 251°
2026-05-06 14:30 50.15094 8.97965 5989 ft 246 kts 250°
2026-05-06 14:30 50.14570 8.95598 5996 ft 216 kts 249°
2026-05-06 14:31 50.14083 8.93519 5979 ft 194 kts 249°
2026-05-06 14:31 50.13634 8.91614 5791 ft 187 kts 248°
2026-05-06 14:31 50.13193 8.89741 5565 ft 181 kts 248°
2026-05-06 14:31 50.12766 8.87922 5316 ft 176 kts 248°
2026-05-06 14:32 50.12349 8.86148 5062 ft 172 kts 248°
2026-05-06 14:32 50.11941 8.84415 4824 ft 169 kts 249°
2026-05-06 14:32 50.11541 8.82717 4581 ft 165 kts 248°
2026-05-06 14:32 50.11148 8.81052 4347 ft 162 kts 248°
2026-05-06 14:33 50.10765 8.79425 4111 ft 159 kts 248°
2026-05-06 14:33 50.10389 8.77833 3886 ft 154 kts 248°
2026-05-06 14:33 50.10024 8.76288 3667 ft 151 kts 249°
2026-05-06 14:33 50.09647 8.74692 3459 ft 165 kts 249°
2026-05-06 14:34 50.09250 8.73014 3216 ft 166 kts 250°
2026-05-06 14:34 50.08851 8.71329 2979 ft 167 kts 250°
2026-05-06 14:34 50.08449 8.69631 2735 ft 166 kts 250°
2026-05-06 14:34 50.08052 8.67960 2509 ft 163 kts 250°
2026-05-06 14:35 50.07657 8.66293 2270 ft 164 kts 250°
2026-05-06 14:35 50.07260 8.64622 2033 ft 164 kts 249°
2026-05-06 14:35 50.06867 8.62966 1803 ft 163 kts 250°
2026-05-06 14:35 50.06476 8.61323 1580 ft 156 kts 252°
2026-05-06 14:36 50.06112 8.59799 1344 ft 146 kts 250°
2026-05-06 14:36 50.05752 8.58307 1130 ft 146 kts 248°
2026-05-06 14:36 50.05413 8.56841 898 ft 145 kts 249°
2026-05-06 14:36 50.05061 8.55360 683 ft 145 kts 250°
2026-05-06 14:37 50.04717 8.53923 478 ft 138 kts 249°
2026-05-06 14:37 50.04398 8.52592 356 ft 125 kts 250°
2026-05-06 14:37 50.04139 8.51517 331 ft 82 kts 249°
2026-05-06 14:37 50.03998 8.50935 326 ft 36 kts 249°
2026-05-06 14:38 50.03911 8.50588 323 ft 33 kts 248°
2026-05-06 14:38 50.03797 8.50326 322 ft 29 kts 220°
2026-05-06 14:38 50.03697 8.50194 320 ft 19 kts 219°
2026-05-06 14:38 50.03635 8.50202 318 ft 9 kts 134°
2026-05-06 14:39 50.03628 8.50282 321 ft 7 kts 74°
2026-05-06 14:39 50.03648 8.50361 322 ft 9 kts 69°
2026-05-06 14:39 50.03675 8.50478 323 ft 18 kts 71°
2026-05-06 14:39 50.03737 8.50758 323 ft 36 kts 69°
2026-05-06 14:40 50.03806 8.51034 329 ft 45 kts 69°
2026-05-06 14:40 50.03915 8.51488 332 ft 44 kts 69°
2026-05-06 14:40 50.04051 8.52062 341 ft 42 kts 69°
2026-05-06 14:40 50.04152 8.52477 345 ft 40 kts 70°
2026-05-06 14:41 50.04249 8.52879 353 ft 39 kts 69°
2026-05-06 14:41 50.04341 8.53258 361 ft 36 kts 69°
2026-05-06 14:41 50.04395 8.53577 364 ft 17 kts 89°
2026-05-06 14:41 50.04411 8.53761 366 ft 17 kts 85°
2026-05-06 14:42 50.04418 8.53887 360 ft 18 kts 85°
2026-05-06 14:42 50.04432 8.54082 363 ft 19 kts 84°
2026-05-06 14:42 50.04447 8.54285 365 ft 19 kts 83°
2026-05-06 14:42 50.04449 8.54497 362 ft 20 kts 101°
2026-05-06 14:43 50.04352 8.54735 359 ft 20 kts 142°
2026-05-06 14:43 50.04265 8.54797 362 ft 21 kts 160°
2026-05-06 14:43 50.04132 8.54871 361 ft 19 kts 159°
2026-05-06 14:43 50.04085 8.54901 361 ft 2 kts 158°
2026-05-06 14:44 50.04083 8.54902 360 ft 0 kts 158°
2026-05-06 14:45 50.03964 8.54972 361 ft 8 kts 159°
2026-05-06 14:45 50.03921 8.54998 363 ft 5 kts 159°
2026-05-06 14:45 50.03916 8.55001 361 ft 0 kts 159°
2026-05-06 14:45 50.03915 8.55002 361 ft 1 kts 159°
2026-05-06 14:46 50.03870 8.55028 366 ft 12 kts 155°
2026-05-06 14:46 50.03852 8.55129 365 ft 9 kts 69°
2026-05-06 14:46 50.03878 8.55242 360 ft 15 kts 68°
2026-05-06 14:46 50.03943 8.55505 360 ft 35 kts 70°
2026-05-06 14:47 50.04026 8.55849 362 ft 33 kts 70°
2026-05-06 14:47 50.04099 8.56167 362 ft 30 kts 69°
2026-05-06 14:47 50.04169 8.56452 362 ft 27 kts 69°
2026-05-06 14:47 50.04229 8.56706 364 ft 23 kts 70°
2026-05-06 14:48 50.04283 8.56806 360 ft 10 kts 18°
2026-05-06 14:48 50.04381 8.56836 360 ft 19 kts 10°
2026-05-06 14:48 50.04471 8.56863 360 ft 4 kts 11°
2026-05-06 14:48 50.04492 8.56871 360 ft 6 kts 14°
2026-05-06 14:49 50.04548 8.56891 359 ft 0 kts 12°
2026-05-06 14:49 50.04567 8.56898 362 ft 7 kts 13°
2026-05-06 14:49 50.04646 8.56931 361 ft 13 kts 21°
2026-05-06 14:49 50.04715 8.56976 361 ft 4 kts
2026-05-06 14:50 50.04724 8.56962 367 ft 1 kts 320°
2026-05-06 14:50 50.04735 8.56939 360 ft 9 kts 303°
2026-05-06 14:50 50.04748 8.56897 363 ft 1 kts 294°
2026-05-06 14:50 50.04750 8.56889 362 ft 0 kts 294°
2026-05-06 14:51 50.04752 8.56884 360 ft 0 kts 295°